User: anonymous   Login
Location: Albany
(35.0000°S, 118.0000°E)
Time: 14:44:54
(UTC-05:00)
Language:

SJ-6B - Orbit

View from above orbital plane
View from above orbital plane
View from above satellite
View from above satellite

Ground track
Ground track

The orbit data is extracted from the following two-line orbital elements,

1 28415U 04035C   16338.22627642  .00000706  00000-0  51466-4 0  9993
2 28415  97.7648   0.1894 0053882  66.8263 293.8627 15.05980247669089
Epoch (UTC): 03 December 2016 05:25:50
Eccentricity: 0.0053882
inclination: 97.7648°
perigee height: 511 km
apogee height: 586 km
right ascension of ascending node: 0.1894°
argument of perigee: 66.8263°
revolutions per day: 15.05980247
mean anomaly at epoch: 293.8627°
orbit number at epoch: 66908

The dashed part of the orbit path shows where the satellite is in the earth's shadow,  

DLR